Weather History for KBKN - October, 2012

Change the Weather History Date:

Saturday, October 27, 2012

  Actual Average (KPNC) Record (KPNC)
Temperature  
Mean Temperature 38 °F -  
Max Temperature 51 °F 70 °F 89 °F (1950)
Min Temperature 24 °F 46 °F 21 °F (2012)
Degree Days  
Heating Degree Days 28    
Moisture  
Dew Point 21 °F    
Average Humidity 56    
Maximum Humidity 86    
Minimum Humidity 28    
Precipitation  
Precipitation 0.00 in - - ()
Sea Level Pressure  
Sea Level Pressure 30.32 in    
Wind  
Wind Speed 7 mph (NNE)    
Max Wind Speed 10 mph    
Max Gust Speed -    
Visibility 10 miles    
Events      
Averages and records for this station are not official NWS values.
T = Trace of Precipitation, MM = Missing Value Source: NWS Daily Summary

Daily Weather History Graph

Daily Weather History Graph

Search for Another Location

Airport or City:

Trip Planner

Search our weather history database for the weather conditions in past years. The results will help you decide how hot, cold, wet, or windy it might be!

Date:

Astronomy

Oct. 27, 2012 Rise Set
Actual Time 7:48 AM CDT 6:37 PM CDT
Civil Twilight 7:22 AM CDT 7:03 PM CDT
Nautical Twilight 6:51 AM CDT 7:34 PM CDT
Astronomical Twilight 6:21 AM CDT 8:04 PM CDT
Moon 5:22 PM CDT 5:47 AM CDT
Length of Visible Light 11h 41m
Length of Day
10h 48m
Waxing Gibbous, 96% of the Moon is Illuminated
Oct 27
Waxing Gibbous
Oct 29
Full
Nov 6
Last Quarter
Nov 13
New
Nov 20
First Quarter

Hourly Weather History & Observations

Time (CDT) Temp. Windchill Dew Point Humidity Pressure Visibility Wind Dir Wind Speed Gust Speed Precip Events Conditions
12:15 AM 30.2 °F 23.4 °F 21.2 °F 69% 30.40 in 10.0 mi NNW 6.9 mph - N/A   Clear
12:35 AM 30.2 °F 23.4 °F 21.2 °F 69% 30.39 in 10.0 mi NNW 6.9 mph - N/A   Clear
12:55 AM 28.4 °F 20.4 °F 19.4 °F 69% 30.38 in 10.0 mi NNW 8.1 mph - N/A   Clear
1:15 AM 28.4 °F 19.7 °F 19.4 °F 69% 30.39 in 10.0 mi NNW 9.2 mph - N/A   Clear
1:35 AM 26.6 °F 17.5 °F 19.4 °F 74% 30.39 in 10.0 mi NNW 9.2 mph - N/A   Clear
1:55 AM 26.6 °F 17.5 °F 21.2 °F 80% 30.39 in 10.0 mi NNW 9.2 mph - N/A   Partly Cloudy
2:15 AM 28.4 °F 20.4 °F 21.2 °F 74% 30.38 in 10.0 mi NNW 8.1 mph - N/A   Clear
2:35 AM 28.4 °F 19.1 °F 21.2 °F 74% 30.39 in 10.0 mi North 10.4 mph - N/A   Clear
2:55 AM 28.4 °F 20.4 °F 21.2 °F 74% 30.38 in 10.0 mi North 8.1 mph - N/A   Partly Cloudy
3:15 AM 28.4 °F 20.4 °F 21.2 °F 74% 30.37 in 10.0 mi North 8.1 mph - N/A   Partly Cloudy
3:35 AM 26.6 °F 18.2 °F 19.4 °F 74% 30.37 in 10.0 mi North 8.1 mph - N/A   Partly Cloudy
3:55 AM 26.6 °F 21.2 °F 19.4 °F 74% 30.37 in 10.0 mi North 4.6 mph - N/A   Clear
4:15 AM 24.8 °F 16.9 °F 19.4 °F 80% 30.37 in 10.0 mi NNW 6.9 mph - N/A   Clear
4:35 AM 24.8 °F 19.1 °F 19.4 °F 80% 30.36 in 10.0 mi North 4.6 mph - N/A   Clear
4:55 AM 24.8 °F 16.9 °F 19.4 °F 80% 30.36 in 10.0 mi NNW 6.9 mph - N/A   Clear
5:15 AM 24.8 °F 15.3 °F 19.4 °F 80% 30.36 in 10.0 mi North 9.2 mph - N/A   Clear
5:35 AM 26.6 °F 18.2 °F 21.2 °F 80% 30.36 in 10.0 mi North 8.1 mph - N/A   Clear
5:55 AM 24.8 °F 15.3 °F 19.4 °F 80% 30.36 in 10.0 mi North 9.2 mph - N/A   Clear
6:15 AM 24.8 °F 16.1 °F 19.4 °F 80% 30.37 in 10.0 mi North 8.1 mph - N/A   Clear
6:35 AM 24.8 °F 16.1 °F 19.4 °F 80% 30.37 in 10.0 mi North 8.1 mph - N/A   Clear
6:55 AM 24.8 °F 15.3 °F 19.4 °F 80% 30.37 in 10.0 mi North 9.2 mph - N/A   Clear
7:15 AM 24.8 °F 16.1 °F 19.4 °F 80% 30.38 in 10.0 mi NNW 8.1 mph - N/A   Clear
7:35 AM 24.8 °F 14.6 °F 21.2 °F 86% 30.39 in 10.0 mi NNW 10.4 mph - N/A   Clear
7:55 AM 24.8 °F 15.3 °F 21.2 °F 86% 30.39 in 10.0 mi North 9.2 mph - N/A   Clear
8:15 AM 26.6 °F 19.1 °F 21.2 °F 80% 30.40 in 10.0 mi North 6.9 mph - N/A   Clear
8:35 AM 28.4 °F 19.7 °F 23.0 °F 80% 30.40 in 10.0 mi North 9.2 mph - N/A   Clear
8:55 AM 30.2 °F 21.9 °F 24.8 °F 80% 30.41 in 10.0 mi North 9.2 mph - N/A   Clear
9:15 AM 32.0 °F 24.8 °F 24.8 °F 75% 30.41 in 10.0 mi North 8.1 mph - N/A   Clear
9:35 AM 35.6 °F 29.2 °F 26.6 °F 70% 30.40 in 10.0 mi NNE 8.1 mph - N/A   Clear
9:55 AM 37.4 °F 31.4 °F 26.6 °F 65% 30.41 in 10.0 mi NNE 8.1 mph - N/A   Clear
10:15 AM 39.2 °F 33.0 °F 26.6 °F 61% 30.40 in 10.0 mi NE 9.2 mph - N/A   Clear
10:35 AM 39.2 °F 33.6 °F 26.6 °F 61% 30.39 in 10.0 mi ENE 8.1 mph - N/A   Clear
10:55 AM 41.0 °F 34.7 °F 24.8 °F 53% 30.38 in 10.0 mi East 10.4 mph - N/A   Clear
11:15 AM 42.8 °F 38.0 °F 24.8 °F 49% 30.38 in 10.0 mi East 8.1 mph - N/A   Clear
11:35 AM 42.8 °F 38.0 °F 24.8 °F 49% 30.37 in 10.0 mi NE 8.1 mph - N/A   Clear
12:15 PM 44.6 °F 40.7 °F 24.8 °F 46% 30.34 in 10.0 mi East 6.9 mph - N/A   Clear
12:35 PM 44.6 °F 43.1 °F 24.8 °F 46% 30.33 in 10.0 mi NNE 3.5 mph - N/A   Clear
12:55 PM 46.4 °F 42.4 °F 24.8 °F 43% 30.32 in 10.0 mi East 8.1 mph - N/A   Clear
1:15 PM 46.4 °F 41.9 °F 24.8 °F 43% 30.30 in 10.0 mi ESE 9.2 mph - N/A   Clear
1:35 PM 48.2 °F - 24.8 °F 40% 30.29 in 10.0 mi ESE 8.1 mph - N/A   Clear
1:55 PM 48.2 °F - 23.0 °F 37% 30.28 in 10.0 mi SE 4.6 mph - N/A   Clear
2:15 PM 48.2 °F - 23.0 °F 37% 30.27 in 10.0 mi NE 6.9 mph - N/A   Clear
2:35 PM 50.0 °F - 23.0 °F 35% 30.26 in 10.0 mi South 6.9 mph - N/A   Clear
2:55 PM 50.0 °F - 21.2 °F 32% 30.25 in 10.0 mi SE 5.8 mph - N/A   Clear
3:15 PM 50.0 °F - 19.4 °F 30% 30.25 in 10.0 mi East 4.6 mph - N/A   Clear
3:35 PM 50.0 °F - 19.4 °F 30% 30.24 in 10.0 mi Calm Calm - N/A   Clear
3:55 PM 50.0 °F - 19.4 °F 30% 30.23 in 10.0 mi Calm Calm - N/A   Clear
4:15 PM 50.0 °F - 21.2 °F 32% 30.22 in 10.0 mi East 3.5 mph - N/A   Clear
4:35 PM 50.0 °F - 19.4 °F 30% 30.22 in 10.0 mi ESE 5.8 mph - N/A   Clear
4:55 PM 50.0 °F - 19.4 °F 30% 30.22 in 10.0 mi SE 5.8 mph - N/A   Clear
5:15 PM 51.8 °F - 19.4 °F 28% 30.21 in 10.0 mi SE 4.6 mph - N/A   Clear
5:35 PM 50.0 °F - 19.4 °F 30% 30.21 in 10.0 mi SSE 3.5 mph - N/A   Clear
5:55 PM 50.0 °F - 19.4 °F 30% 30.21 in 10.0 mi Calm Calm - N/A   Clear
6:15 PM 50.0 °F - 19.4 °F 30% 30.21 in 10.0 mi East 3.5 mph - N/A   Clear
6:35 PM 48.2 °F - 17.6 °F 30% 30.21 in 10.0 mi East 4.6 mph - N/A   Clear
6:55 PM 46.4 °F 45.2 °F 17.6 °F 32% 30.21 in 10.0 mi ENE 3.5 mph - N/A   Clear
7:15 PM 46.4 °F 44.3 °F 17.6 °F 32% 30.22 in 10.0 mi ENE 4.6 mph - N/A   Mostly Cloudy
7:35 PM 44.6 °F 43.1 °F 17.6 °F 34% 30.23 in 10.0 mi NE 3.5 mph - N/A   Scattered Clouds
7:55 PM 44.6 °F 43.1 °F 17.6 °F 34% 30.23 in 10.0 mi NNE 3.5 mph - N/A   Partly Cloudy
8:15 PM 41.0 °F - 17.6 °F 39% 30.24 in 10.0 mi Calm Calm - N/A   Partly Cloudy
8:35 PM 39.2 °F - 15.8 °F 39% 30.24 in 10.0 mi Calm Calm - N/A   Scattered Clouds
8:55 PM 37.4 °F - 15.8 °F 41% 30.25 in 10.0 mi Calm Calm - N/A   Partly Cloudy
9:15 PM 37.4 °F - 17.6 °F 45% 30.25 in 10.0 mi Calm Calm - N/A   Clear
9:55 PM 33.8 °F - 17.6 °F 52% 30.25 in 10.0 mi Calm Calm - N/A   Partly Cloudy
10:15 PM 35.6 °F 32.8 °F 17.6 °F 48% 30.26 in 10.0 mi North 3.5 mph - N/A   Partly Cloudy
10:35 PM 35.6 °F - 17.6 °F 48% 30.26 in 10.0 mi Calm Calm - N/A   Clear
10:55 PM 33.8 °F 28.6 °F 17.6 °F 52% 30.26 in 10.0 mi NNE 5.8 mph - N/A   Partly Cloudy
11:15 PM 32.0 °F 27.5 °F 17.6 °F 55% 30.26 in 10.0 mi NNE 4.6 mph - N/A   Partly Cloudy
11:35 PM 33.8 °F 28.6 °F 17.6 °F 52% 30.26 in 10.0 mi NE 5.8 mph - N/A   Partly Cloudy
11:55 PM 35.6 °F 31.7 °F 21.2 °F 56% 30.26 in 10.0 mi ENE 4.6 mph - N/A   Scattered Clouds